This demonstration page uses our WeatherBlox Daily Observations layout. Learn more.

Left ArrowRight Arrow

39.01783, -85.05884

Hourly Observations for June 3, 2017

Temp ( °F °C ) Dew Point ( °F °C ) Humidity (%) Winds ( mph kmh ) Pressure ( in mb ) Visibility ( mi km ) Precip ( " mm )
12:52 am 00:52 Clear 63 17.2 53 11.7 70 70 S 5 7 30.04 1017 9 14 N/A
1:52 am 01:52 Clear 58 14.4 55 12.8 90 90 S 5 7 30.04 1017 10 16 N/A
2:52 am 02:52 Clear 63 17.2 50 10 63 63 SSW 3 6 30.04 1017 10 16 N/A
3:52 am 03:52 Clear 63 17.2 50 10 63 63 N N/A 30.04 1017 10 16 N/A
4:52 am 04:52 Clear 57 13.9 51 10.6 81 81 N N/A 30.05 1018 10 16 N/A
5:52 am 05:52 Clear 59 15 51 10.6 75 75 N N/A 30.06 1018 10 16 N/A
6:52 am 06:52 Mostly Sunny 56 13.3 53 11.7 90 90 S 3 6 30.08 1019 10 16 N/A
7:52 am 07:52 Mostly Sunny 62 16.7 57 13.9 84 84 N N/A 30.09 1019 10 16 N/A
8:52 am 08:52 Mostly Sunny 71 21.7 54 12.2 55 55 WSW 5 7 30.08 1019 10 16 N/A
9:52 am 09:52 Partly Cloudy 76 24.4 54 12.2 47 47 WNW 7 11 30.09 1019 10 16 N/A
10:52 am 10:52 Mostly Cloudy 79 26.1 54 12.2 42 42 W 6 9 30.08 1019 10 16 N/A
11:52 am 11:52 Partly Cloudy 82 27.8 53 11.7 37 37 WNW 6 9 30.08 1019 10 16 N/A
12:52 pm 12:52 Partly Cloudy 83 28.3 52 11.1 34 34 W 6 9 30.07 1018 10 16 N/A
1:52 pm 13:52 Partly Cloudy 84 28.9 44 6.7 25 25 VRB 3 6 30.06 1018 10 16 N/A
2:52 pm 14:52 Partly Cloudy 86 30 46 7.8 25 25 NE 3 6 30.04 1017 10 16 N/A
3:52 pm 15:52 Partly Cloudy 86 30 44 6.7 23 23 VRB 3 6 30.03 1017 10 16 N/A
4:52 pm 16:52 Mostly Cloudy 86 30 46 7.8 25 25 N N/A 30.01 1016 10 16 N/A
5:52 pm 17:52 Partly Cloudy 86 30 43 6.1 22 22 N N/A 30.00 1016 10 16 N/A
6:52 pm 18:52 Mostly Sunny 83 28.3 50 10 32 32 S 5 7 29.99 1016 10 16 N/A
7:52 pm 19:52 Mostly Sunny 79 26.1 53 11.7 41 41 S 6 9 29.98 1015 10 16 N/A
8:52 pm 20:52 Partly Cloudy 74 23.3 52 11.1 46 46 S 6 9 29.98 1015 10 16 N/A
9:52 pm 21:52 Mostly Clear 73 22.8 51 10.6 46 46 S 6 9 29.97 1015 10 16 N/A
10:52 pm 22:52 Clear 72 22.2 50 10 46 46 S 5 7 29.98 1015 10 16 N/A
11:52 pm 23:52 Clear 70 21.1 51 10.6 51 51 SSW 6 9 30.00 1016 10 16 N/A

Powered by AerisWeather